• In Deutschland
  • Länderverzeichnis
  • Für 7 Tage
  • Wassertemperatur
  • Satellitenkarten
  • Wetterkarte
  • Widgets
  • user-avatar
    Anmelden

    Stündliche Wetter Solingen

    Heute, 13 Dezember, Mittwoch

    Zeit Temperatur Niederschläge Wind Luftdruck Luftfeuchtigkeit
    00:00 -1°C° 0 mm 3 m/S 740 mmHg 88%
    01:00 -2°C° 0 mm 4 m/S 740 mmHg 88%
    02:00 -2°C° 0 mm 4 m/S 739 mmHg 87%
    03:00 -2°C° 0 mm 4 m/S 739 mmHg 86%
    04:00 -1°C° 0 mm 5 m/S 738 mmHg 85%
    05:00 -1°C° 0 mm 5 m/S 737 mmHg 84%
    06:00 -1°C° 0 mm 4 m/S 737 mmHg 83%
    07:00 0°C° 0,2 mm 5 m/S 736 mmHg 81%
    08:00 -1°C° 0,2 mm 6 m/S 735 mmHg 79%
    09:00 0°C° 0,2 mm 7 m/S 734 mmHg 77%
    10:00 0°C° 1,1 mm 7 m/S 733 mmHg 78%
    11:00 +2°C° 1,1 mm 7 m/S 733 mmHg 78%
    12:00 +2°C° 1,1 mm 7 m/S 732 mmHg 78%
    13:00 +2°C° 1,4 mm 7 m/S 731 mmHg 80%
    14:00 +2°C° 1,4 mm 7 m/S 730 mmHg 82%
    15:00 +2°C° 1,4 mm 6 m/S 729 mmHg 83%
    16:00 +3°C° 0,5 mm 6 m/S 728 mmHg 85%
    17:00 +3°C° 0,5 mm 6 m/S 727 mmHg 86%
    18:00 +3°C° 0,5 mm 6 m/S 726 mmHg 87%
    19:00 +3°C° 1,3 mm 6 m/S 725 mmHg 86%
    20:00 +4°C° 1,3 mm 7 m/S 723 mmHg 85%
    21:00 +4°C° 1,3 mm 8 m/S 722 mmHg 85%
    22:00 +3°C° 1,6 mm 7 m/S 722 mmHg 82%
    23:00 +3°C° 1,6 mm 7 m/S 723 mmHg 80%

    Morgen, 14 Dezember, Donnerstag

    Zeit Temperatur Niederschläge Wind Luftdruck Luftfeuchtigkeit
    00:00 +2°C° 1,6 mm 6 m/S 723 mmHg 78%
    01:00 +2°C° 0,6 mm 5 m/S 723 mmHg 80%
    02:00 +1°C° 0,6 mm 5 m/S 723 mmHg 82%
    03:00 +1°C° 0,6 mm 4 m/S 723 mmHg 83%
    04:00 +1°C° 1,2 mm 5 m/S 724 mmHg 79%
    05:00 -1°C° 1,2 mm 7 m/S 725 mmHg 74%
    06:00 -1°C° 1,2 mm 8 m/S 726 mmHg 70%
    07:00 -1°C° 0 mm 8 m/S 726 mmHg 71%
    08:00 -1°C° 0 mm 7 m/S 727 mmHg 71%
    09:00 -1°C° 0 mm 7 m/S 728 mmHg 72%
    10:00 0°C° 0,1 mm 7 m/S 727 mmHg 72%
    11:00 0°C° 0,1 mm 7 m/S 727 mmHg 72%
    12:00 +2°C° 0,1 mm 7 m/S 727 mmHg 72%
    13:00 +2°C° 0,2 mm 6 m/S 727 mmHg 74%
    14:00 +1°C° 0,2 mm 5 m/S 726 mmHg 77%
    15:00 +1°C° 0,2 mm 4 m/S 726 mmHg 80%
    16:00 +1°C° 0,1 mm 4 m/S 725 mmHg 81%
    17:00 +1°C° 0,1 mm 4 m/S 725 mmHg 83%
    18:00 +1°C° 0,1 mm 3 m/S 724 mmHg 85%
    19:00 +1°C° 0,1 mm 3 m/S 724 mmHg 86%
    20:00 +1°C° 0,1 mm 3 m/S 724 mmHg 86%
    21:00 +1°C° 0,1 mm 3 m/S 724 mmHg 87%
    22:00 +1°C° 0,1 mm 3 m/S 724 mmHg 86%
    23:00 +1°C° 0,1 mm 3 m/S 724 mmHg 86%

    übermorgen, 15 Dezember, Freitag

    Zeit Temperatur Niederschläge Wind Luftdruck Luftfeuchtigkeit
    00:00 0°C° 0,1 mm 4 m/S 725 mmHg 85%
    01:00 0°C° 0 mm 3 m/S 725 mmHg 85%
    02:00 0°C° 0 mm 3 m/S 725 mmHg 85%
    03:00 -1°C° 0 mm 3 m/S 725 mmHg 85%
    04:00 -1°C° 0 mm 3 m/S 725 mmHg 85%
    05:00 -1°C° 0 mm 3 m/S 726 mmHg 85%
    06:00 -1°C° 0 mm 2 m/S 726 mmHg 86%
    07:00 -1°C° 0 mm 2 m/S 726 mmHg 85%
    08:00 +1°C° 0 mm 2 m/S 726 mmHg 85%
    09:00 +1°C° 0 mm 2 m/S 727 mmHg 85%
    10:00 +2°C° 0,1 mm 2 m/S 727 mmHg 85%
    11:00 +3°C° 0,1 mm 2 m/S 727 mmHg 85%
    12:00 +3°C° 0,1 mm 2 m/S 728 mmHg 85%
    13:00 +3°C° 0,1 mm 2 m/S 728 mmHg 87%
    14:00 +3°C° 0,1 mm 2 m/S 728 mmHg 88%
    15:00 +3°C° 0,1 mm 2 m/S 728 mmHg 90%
    16:00 +3°C° 0,1 mm 1 m/S 729 mmHg 92%
    17:00 +3°C° 0,1 mm 1 m/S 729 mmHg 93%
    18:00 +2°C° 0,1 mm 1 m/S 730 mmHg 95%
    19:00 +2°C° 0 mm 1 m/S 730 mmHg 95%
    20:00 +2°C° 0 mm 1 m/S 731 mmHg 95%
    21:00 +1°C° 0 mm 2 m/S 731 mmHg 96%
    22:00 +1°C° 0 mm 2 m/S 732 mmHg 95%
    23:00 +1°C° 0 mm 2 m/S 732 mmHg 94%

    16 Dezember, Samstag

    Zeit Temperatur Niederschläge Wind Luftdruck Luftfeuchtigkeit
    00:00 +1°C° 0 mm 2 m/S 732 mmHg 94%
    01:00 +1°C° 0 mm 2 m/S 732 mmHg 93%
    02:00 -1°C° 0 mm 2 m/S 733 mmHg 92%
    03:00 -1°C° 0 mm 3 m/S 733 mmHg 91%
    04:00 -1°C° 0 mm 3 m/S 733 mmHg 91%
    05:00 -1°C° 0 mm 3 m/S 734 mmHg 90%
    06:00 -1°C° 0 mm 3 m/S 734 mmHg 90%
    07:00 -1°C° 0,1 mm 3 m/S 735 mmHg 89%
    08:00 -1°C° 0,1 mm 3 m/S 736 mmHg 89%
    09:00 -1°C° 0,1 mm 4 m/S 736 mmHg 88%
    10:00 0°C° 0,1 mm 4 m/S 736 mmHg 85%
    11:00 0°C° 0,1 mm 4 m/S 737 mmHg 81%
    12:00 +1°C° 0,1 mm 4 m/S 737 mmHg 78%
    13:00 +1°C° 0,2 mm 4 m/S 738 mmHg 78%
    14:00 0°C° 0,2 mm 4 m/S 738 mmHg 79%
    15:00 +1°C° 0,2 mm 3 m/S 739 mmHg 80%
    16:00 +1°C° 0,2 mm 3 m/S 739 mmHg 81%
    17:00 0°C° 0,2 mm 3 m/S 740 mmHg 83%
    18:00 0°C° 0,2 mm 3 m/S 740 mmHg 84%
    19:00 0°C° 0,1 mm 3 m/S 741 mmHg 85%
    20:00 0°C° 0,1 mm 3 m/S 741 mmHg 86%
    21:00 -1°C° 0,1 mm 3 m/S 742 mmHg 87%
    22:00 -1°C° 0,2 mm 3 m/S 742 mmHg 88%
    23:00 -1°C° 0,2 mm 3 m/S 743 mmHg 89%

    17 Dezember, Sonntag

    Zeit Temperatur Niederschläge Wind Luftdruck Luftfeuchtigkeit
    00:00 0°C° 0,2 mm 3 m/S 743 mmHg 91%
    01:00 -1°C° 0,2 mm 3 m/S 743 mmHg 91%
    02:00 -1°C° 0,2 mm 3 m/S 743 mmHg 92%
    03:00 -1°C° 0,2 mm 3 m/S 744 mmHg 93%
    04:00 -1°C° 0,1 mm 3 m/S 744 mmHg 94%
    05:00 -1°C° 0,1 mm 3 m/S 744 mmHg 94%
    06:00 -1°C° 0,1 mm 3 m/S 745 mmHg 94%
    07:00 -1°C° 0 mm 3 m/S 745 mmHg 93%
    08:00 -1°C° 0 mm 3 m/S 746 mmHg 93%
    09:00 -1°C° 0 mm 3 m/S 746 mmHg 92%
    10:00 0°C° 0 mm 3 m/S 747 mmHg 90%
    11:00 +1°C° 0 mm 3 m/S 747 mmHg 89%
    12:00 +1°C° 0 mm 3 m/S 747 mmHg 87%
    13:00 +1°C° 0 mm 3 m/S 747 mmHg 88%
    14:00 +2°C° 0 mm 2 m/S 748 mmHg 90%
    15:00 +1°C° 0 mm 2 m/S 748 mmHg 91%
    16:00 +1°C° 0 mm 2 m/S 749 mmHg 92%
    17:00 -1°C° 0 mm 2 m/S 749 mmHg 92%
    18:00 -1°C° 0 mm 2 m/S 749 mmHg 93%
    19:00 -1°C° 0 mm 2 m/S 750 mmHg 93%
    20:00 -1°C° 0 mm 2 m/S 750 mmHg 93%
    21:00 -1°C° 0 mm 2 m/S 750 mmHg 93%
    22:00 -1°C° 0 mm 3 m/S 750 mmHg 92%
    23:00 -1°C° 0 mm 3 m/S 750 mmHg 92%

    18 Dezember, Montag

    Zeit Temperatur Niederschläge Wind Luftdruck Luftfeuchtigkeit
    00:00 0°C° 0 mm 3 m/S 749 mmHg 91%
    01:00 -1°C° 0 mm 4 m/S 749 mmHg 89%
    02:00 -1°C° 0 mm 4 m/S 748 mmHg 87%
    03:00 -1°C° 0 mm 5 m/S 748 mmHg 85%
    04:00 -1°C° 1,4 mm 5 m/S 747 mmHg 87%
    05:00 -1°C° 1,4 mm 5 m/S 746 mmHg 90%
    06:00 -1°C° 1,4 mm 5 m/S 745 mmHg 92%
    07:00 0°C° 1 mm 5 m/S 745 mmHg 93%
    08:00 0°C° 1 mm 5 m/S 744 mmHg 95%
    09:00 +1°C° 1 mm 5 m/S 744 mmHg 97%
    10:00 +3°C° 0,6 mm 4 m/S 744 mmHg 97%
    11:00 +3°C° 0,6 mm 4 m/S 743 mmHg 98%
    12:00 +4°C° 0,6 mm 4 m/S 743 mmHg 98%
    13:00 +4°C° 0,2 mm 4 m/S 744 mmHg 98%
    14:00 +4°C° 0,2 mm 3 m/S 744 mmHg 98%
    15:00 +4°C° 0,2 mm 3 m/S 745 mmHg 97%
    16:00 +3°C° 0,1 mm 3 m/S 746 mmHg 97%
    17:00 +3°C° 0,1 mm 3 m/S 746 mmHg 96%
    18:00 +2°C° 0,1 mm 3 m/S 747 mmHg 96%
    19:00 +2°C° 0 mm 3 m/S 748 mmHg 96%
    20:00 +3°C° 0 mm 2 m/S 749 mmHg 96%
    21:00 +3°C° 0 mm 2 m/S 749 mmHg 96%
    22:00 +3°C° 0 mm 2 m/S 750 mmHg 96%
    23:00 +3°C° 0 mm 2 m/S 750 mmHg 97%
    Mehr zeigen